THORAD AGENA D DEB, 42508

Orbit data source: Space-Track

THORAD AGENA D DEB, 42508 is space debris in SSO originally from a launch on Wed, 08 Apr 1970 UTC launched from the Air Force Western Test Range (AFWTR). Debris objects in space refer to the collection of defunct objects orbiting the Earth. Examples of debris include non-operational satellites, rocket bodies, and fragments generated from explosions, collisions, or faulty payload assembly.

Loading next visibility...
Identifier
42508, 1970-025RN
Orbit
SSO
Country
Flag of USUS
Related business
Manufacturer
Unknown
Mission
Spacecraft
Bus & Motor
Unknown
Mass
Unknown
Launch date (UTC)
1970-04-08 (56 years ago)
Launch vehicle
Unknown
Launch site
Air Force Western Test Range (AFWTR)
Object type
Payload
Rocket body
Debris
Shape & HBR
Unknown shape, 0.1 m
Radar Cross Section
Small (<0.1 m²)

Expand to show TLE details & history
Last TLE update: 2 weeks ago

TLE from 2 weeks ago
0 THORAD AGENA D DEB
1 42508U 70025RN  25344.85981168  .00000722  00000-0  56211-3 0  9996
2 42508  99.8331 200.9893 0120889 119.0847 242.2479 13.92614123150023
Epoch: 2025-12-10T20:38Z
TLE epoch observation values (Epoch: 2025-12-10T20:38:07.729Z)
Latitude
-0.00006°
Longitude
171.63302°
Altitude
964.24 km
Speed
7.348 km/s
True Right ascension
13h 23m 57s
True Declination
0° 00' 00"
Sunlit
Object was in daylight at epoch
Visualization orbit readout
Latitude
Unknown
Longitude
Unknown
Altitude
Unknown
Speed
Unknown
Apparent Right ascension
Unknown
Apparent Declination
Unknown
Sunlit
N/A
Visualization observer readout
Local Sidereal Time
19:34:19
Azimuth
Unknown
Elevation
Unknown
Doppler factor
Unknown
Orbital elements
Apogee altitude
1,004.922 km
Perigee altitude
828.548 km
Semi-major axis
7,294.872 km
Eccentricity
0.01209
Inclination
99.8331°
RAAN
200.9893°
Arg. of periapsis
119.0847°
True anomaly
241.03062°
Mean anomaly
242.2479°
Eccentric anomaly
241.6384°
Mean motion
3.48351 °/min
Orbital period
103.34 mins
BSTAR
0.00056211
Loading maneuver chart data...
Computing Atmospheric mass density...

Documentation

Showing up to 5 results
|